COSMOS 1275 DEB, 17616

Orbit data source: Space-Track

COSMOS 1275 DEB, 17616 is space debris in LEO originally from a launch on Thu, 04 Jun 1981 UTC launched from the Plesetsk Missile And Space Complex (PKMTR). Debris objects in space refer to the collection of defunct objects orbiting the Earth. Examples of debris include non-operational satellites, rocket bodies, and fragments generated from explosions, collisions, or faulty payload assembly.

Loading next visibility...
Identifier
17616, 1981-053KK
Orbit
LEO
Country
Flag of CISCIS
Related business
Manufacturer
Unknown
Mission
Spacecraft
Bus & Motor
Unknown
Mass
Unknown
Launch date (UTC)
1981-06-04 (45 years ago)
Launch vehicle
Unknown
Launch site
Plesetsk Missile And Space Complex (PKMTR)
Object type
Payload
Rocket body
Debris
Shape & HBR
Unknown shape, 0.1 m
Radar Cross Section
Small (<0.1 m²)

Expand to show TLE details & history
Last TLE update: 14 hours ago

TLE from 14 hours ago
0 COSMOS 1275 DEB
1 17616U 81053KK  26104.57401179  .00000756  00000-0  80248-3 0  9998
2 17616  83.0437  42.4130 0119132 325.9529 215.0848 13.70132781 33450
Epoch: 2026-04-14T13:46Z
TLE epoch observation values (Epoch: 2026-04-14T13:46:34.618Z)
Latitude
-0.37678°
Longitude
173.06618°
Altitude
1,074.312 km
Speed
7.279 km/s
True Right ascension
14h 49m 50s
True Declination
0° 22' 29"
Sunlit
Object was in full shadow at epoch
Visualization orbit readout
Latitude
Unknown
Longitude
Unknown
Altitude
Unknown
Speed
Unknown
Apparent Right ascension
Unknown
Apparent Declination
Unknown
Sunlit
N/A
Visualization observer readout
Local Sidereal Time
10:29:23
Azimuth
Unknown
Elevation
Unknown
Doppler factor
Unknown
Orbital elements
Apogee altitude
1,084.098 km
Perigee altitude
908.393 km
Semi-major axis
7,374.382 km
Eccentricity
0.01191
Inclination
83.0437°
RAAN
42.413°
Arg. of periapsis
325.9529°
True anomaly
214.3096°
Mean anomaly
215.0848°
Eccentric anomaly
214.69626°
Mean motion
3.42732 °/min
Orbital period
105.04 mins
BSTAR
0.00080248
Loading maneuver chart data...
Computing Atmospheric mass density...
Loading historical data...
Loading historical data...
Loading historical data...
Loading historical data...
Loading historical data...
Loading historical data...
Loading historical data...

Documentation

Showing up to 5 results
|